Flag for U.S.A. Weather past 2 weeks in Anchorage, Alaska, U.S.A.

Now
45 °F

Sunny.


Feels Like: 42 °F
Forecast: 39 / 53 °F
Wind: 6 mph from Northeast

Location: Lake Hood Seaplane

Current Time: Apr 26, 2015 at 11:48:46 AM

Latest Report: Apr 26, 2015 at 10:53 AM


Visibility: 10 mi

Pressure: 29.63 "Hg

Humidity: 44%

Dew point: 24 °F

Location of AnchorageLocation

Historic Weather in Anchorage — Graph

°F

Anchorage temperature yesterday

Maximum temperature yesterday: 53 °F (at 4:53 PM)
Minimum temperature yesterday: 37 °F (at 2:53 AM)
Average temperature yesterday: 45 °F

Past Weeks' High & Low Weather Summary

 TemperatureHumidityPressure
High53 °F (Apr 25, 4:53 PM)100% (Apr 12, 9:02 AM)30.05 "Hg (Apr 12, 9:02 AM)
Low27 °F (Apr 14, 3:53 AM)21% (Apr 24, 4:53 PM)29.23 "Hg (Apr 11, 3:53 PM)
Average39 °F61%29.67 "Hg
* Reported Apr 11 9:53 AM — Apr 26 9:53 AM, Anchorage, Weather by CustomWeather, © 2015

Note: Actual official high and low records may vary slightly from our data, if they occured in-between our weather recording intervals... More about our weather records

Advertising

Anchorage weather history for previous 24 hours

 ConditionsComfort  
Time TempWeatherWind HumidityBarometerVisibility
9:53 AM
Sun, Apr 26
41 °FSunny.8 mph49%29.65 "Hg10 mi
8:53 AM38 °FSunny.5 mph55%29.65 "Hg10 mi
7:53 AM37 °FSunny.5 mph54%29.67 "Hg10 mi
6:53 AM36 °FClear.8 mph57%29.68 "Hg10 mi
5:53 AM36 °FClear.9 mph57%29.69 "Hg10 mi
4:53 AM36 °FPassing clouds.7 mph59%29.70 "Hg10 mi
3:53 AM37 °FClear.9 mph60%29.71 "Hg10 mi
2:53 AM37 °FClear.6 mph62%29.73 "Hg10 mi
1:53 AM39 °FClear.7 mph60%29.74 "Hg10 mi
12:53 AM41 °FClear.No wind60%29.76 "Hg10 mi
11:53 PM
Sat, Apr 25
44 °FPassing clouds.6 mph55%29.76 "Hg10 mi
10:53 PM48 °FOvercast.No wind37%29.77 "Hg10 mi
9:53 PM49 °FOvercast.3 mph35%29.77 "Hg10 mi
8:53 PM51 °FPassing clouds.No wind33%29.77 "Hg10 mi
7:53 PM51 °FSunny.8 mph31%29.77 "Hg10 mi
6:53 PM52 °FSunny.8 mph31%29.78 "Hg10 mi
5:53 PM52 °FSunny.3 mph28%29.78 "Hg10 mi
4:53 PM53 °FSunny.8 mph27%29.78 "Hg10 mi
3:53 PM52 °FSunny.No wind27%29.80 "Hg10 mi
2:53 PM51 °FSunny.8 mph28%29.80 "Hg10 mi
1:53 PM52 °FSunny.3 mph25%29.81 "Hg10 mi
12:53 PM49 °FSunny.7 mph28%29.82 "Hg10 mi
11:53 AM47 °FScattered clouds.8 mph33%29.82 "Hg10 mi
Weather by CustomWeather, © 2015

See weather overviewHow to use our weather pages